GW4718 Weather Reports


Display with metric or nautical units.
time (UTC)temp
F
wind
direction
speed
MPH
gust
MPH
rain 1hr
in
rain 24hr
in
rain mn
in
humidity
%
barometer
mb
20260903180158 83 27 5.0 6.0 0.00 0.00 0.00 75 1021.8
20260903175657 85 7 4.0 7.0 0.00 0.00 0.00 73 1022.1
20260903175156 84 10 2.0 6.0 0.00 0.00 0.00 74 1022.1
20260903174651 83 348 3.0 6.0 0.00 0.00 0.00 74 1021.9
20260903174146 83 10 4.0 6.0 0.00 0.00 0.00 73 1022.1
20260903173641 88 6 3.0 4.0 0.00 0.00 0.00 62 1022.3
20260903173137 90 50 0.0 3.0 0.00 0.00 0.00 58 1022.2
20260903172638 90 287 2.0 2.0 0.00 0.00 0.00 59 1022.1
20260903172133 89 91 2.0 3.0 0.00 0.00 0.00 57 1022.2
20260903171632 89 128 4.0 4.0 0.00 0.00 0.00 59 1021.9
20260903171128 88 212 4.0 10.0 0.00 0.00 0.00 57 1022.2
20260903170627 86 213 2.0 6.0 0.00 0.00 0.00 62 1022.3
20260903170123 87 320 0.0 2.0 0.00 0.00 0.00 60 1022.3
20260903165621 88 16 2.0 3.0 0.00 0.00 0.00 61 1022.2
20260903165115 90 269 0.0 3.0 0.00 0.00 0.00 57 1022.2
20260903164610 89 246 2.0 3.0 0.00 0.00 0.00 62 1022.3
20260903164107 88 284 2.0 3.0 0.00 0.00 0.00 61 1022.4
20260903163606 87 341 2.0 4.0 0.00 0.00 0.00 59 1022.5
20260903163102 87 239 2.0 3.0 0.00 0.00 0.00 65 1022.3
20260903162558 87 161 2.0 2.0 0.00 0.00 0.00 64 1022.5
20260903162054 88 242 2.0 3.0 0.00 0.00 0.00 60 1022.6
20260903161549 88 271 1.0 6.0 0.00 0.00 0.00 59 1022.4
20260903161045 88 124 3.0 9.0 0.00 0.00 0.00 59 1022.2
20260903160544 89 213 3.0 4.0 0.00 0.00 0.00 64 1022.6
20260903160039 88 190 4.0 7.0 0.00 0.00 0.00 59 1022.5
20260903155537 88 263 4.0 6.0 0.00 0.00 0.00 61 1022.7
20260903155033 88 207 2.0 6.0 0.00 0.00 0.00 62 1022.5
20260903154530 88 359 2.0 3.0 0.00 0.00 0.00 61 1022.5
20260903154026 87 264 3.0 6.0 0.00 0.00 0.00 64 1022.5
20260903153520 86 150 5.0 7.0 0.00 0.00 0.00 66 1022.3
20260903153016 87 194 1.0 6.0 0.00 0.00 0.00 62 1022.5
20260903152512 86 227 1.0 1.0 0.00 0.00 0.00 64 1022.6
20260903152008 86 79 1.0 2.0 0.00 0.00 0.00 70 1022.6
20260903151507 86 200 1.0 2.0 0.00 0.00 0.00 66 1022.7
20260903151002 85 216 1.0 4.0 0.00 0.00 0.00 74 1022.6
20260903150457 82 90 3.0 6.0 0.00 0.00 0.00 75 1022.6
20260903145952 84 82 3.0 4.0 0.00 0.00 0.00 76 1022.6
20260903145447 84 221 1.0 3.0 0.00 0.00 0.00 69 1022.4
20260903144942 83 278 2.0 3.0 0.00 0.00 0.00 76 1022.6
20260903144441 83 129 1.0 2.0 0.00 0.00 0.00 78 1022.5
20260903143937 83 95 0.0 2.0 0.00 0.00 0.00 78 1022.6
20260903143434 82 101 2.0 2.0 0.00 0.00 0.00 80 1022.5
20260903142929 82 23 0.0 0.0 0.00 0.00 0.00 80 1022.7
20260903142425 82 55 2.0 2.0 0.00 0.00 0.00 80 1022.7
20260903141921 81 67 0.0 1.0 0.00 0.00 0.00 82 1022.7
20260903141416 79 100 2.0 2.0 0.00 0.00 0.00 85 1022.6
20260903140912 79 275 0.0 1.0 0.00 0.00 0.00 86 1022.5
20260903140406 78 62 0.0 1.0 0.00 0.00 0.00 86 1022.8
20260903135901 78 58 0.0 0.0 0.00 0.00 0.00 88 1022.6
20260903135352 77 32 0.0 3.0 0.00 0.00 0.00 89 1022.5
20260903134850 77 77 1.0 2.0 0.00 0.00 0.00 89 1022.9
20260903134345 78 82 1.0 2.0 0.00 0.00 0.00 87 1022.9
20260903133843 79 15 0.0 0.0 0.00 0.00 0.00 84 1022.7
20260903133339 78 70 1.0 2.0 0.00 0.00 0.00 85 1022.8
20260903132834 79 245 0.0 0.0 0.00 0.00 0.00 83 1022.8
20260903132330 78 65 2.0 2.0 0.00 0.00 0.00 86 1022.9
20260903131825 77 169 0.0 0.0 0.00 0.00 0.00 86 1022.9
20260903131324 76 49 1.0 2.0 0.00 0.00 0.00 88 1023.0
20260903130823 76 240 1.0 2.0 0.00 0.00 0.00 87 1023.0
20260903130318 75 146 2.0 2.0 0.00 0.00 0.00 88 1022.8
20260903125817 76 197 2.0 3.0 0.00 0.00 0.00 90 1023.0
20260903125313 74 116 2.0 3.0 0.00 0.00 0.00 90 1023.2
20260903124812 74 207 1.0 2.0 0.00 0.00 0.00 93 1023.3
20260903124308 74 214 2.0 3.0 0.00 0.00 0.00 91 1023.1
20260903123806 73 223 0.0 2.0 0.00 0.00 0.00 92 1023.3
20260903123306 73 213 2.0 3.0 0.00 0.00 0.00 92 1023.4
20260903122804 72 214 1.0 3.0 0.00 0.00 0.00 92 1023.1
20260903122259 71 168 1.0 3.0 0.00 0.00 0.00 93 1023.2
20260903121757 70 189 0.0 0.0 0.00 0.00 0.00 96 1023.3
20260903121253 70 168 1.0 1.0 0.00 0.00 0.00 96 1023.4
20260903120749 69 238 0.0 2.0 0.00 0.00 0.00 97 1023.2
20260903120247 70 159 1.0 2.0 0.00 0.00 0.00 96 1023.0
20260903115747 69 106 0.0 0.0 0.00 0.00 0.00 96 1023.2
20260903115242 70 261 1.0 2.0 0.00 0.00 0.00 96 1023.2
20260903114741 69 105 1.0 1.0 0.00 0.00 0.00 97 1023.3
20260903114238 69 140 1.0 1.0 0.00 0.00 0.00 97 1023.3
20260903113732 69 109 0.0 2.0 0.00 0.00 0.00 96 1023.1
20260903113229 70 91 2.0 6.0 0.00 0.00 0.00 94 1023.1
20260903112724 69 118 0.0 2.0 0.00 0.00 0.00 96 1023.0
20260903112220 69 107 2.0 2.0 0.00 0.00 0.00 97 1022.9
20260903111719 69 351 0.0 2.0 0.00 0.00 0.00 97 1022.9
20260903111214 69 210 2.0 3.0 0.00 0.00 0.00 96 1022.8
20260903110710 69 235 1.0 3.0 0.00 0.00 0.00 97 1022.7
20260903110206 69 121 1.0 2.0 0.00 0.00 0.00 97 1022.6
20260903105705 69 245 2.0 3.0 0.00 0.00 0.00 96 1022.6
20260903105200 69 111 1.0 1.0 0.00 0.00 0.00 97 1022.6
20260903104700 69 343 0.0 0.0 0.00 0.00 0.00 96 1022.3
20260903104155 69 65 3.0 4.0 0.00 0.00 0.00 96 1022.5
20260903103651 69 280 0.0 1.0 0.00 0.00 0.00 95 1022.5
20260903103147 69 56 3.0 6.0 0.00 0.00 0.00 95 1022.3
20260903102642 69 235 0.0 2.0 0.00 0.00 0.00 96 1022.3
20260903102142 69 155 0.0 1.0 0.00 0.00 0.00 95 1022.2
20260903101641 70 100 0.0 2.0 0.00 0.00 0.00 94 1022.2
20260903101137 71 221 1.0 2.0 0.00 0.00 0.00 93 1022.1
20260903100632 69 109 3.0 4.0 0.00 0.00 0.00 94 1022.1
20260903100131 69 193 0.0 2.0 0.00 0.00 0.00 95 1021.9
20260903095629 69 226 3.0 4.0 0.00 0.00 0.00 95 1022.1
20260903095128 69 196 0.0 1.0 0.00 0.00 0.00 95 1021.9
20260903094623 70 173 1.0 2.0 0.00 0.00 0.00 94 1022.1
20260903094119 71 221 3.0 4.0 0.00 0.00 0.00 93 1021.8
20260903093614 69 71 4.0 4.0 0.00 0.00 0.00 96 1021.8
20260903093109 69 244 2.0 3.0 0.00 0.00 0.00 96 1021.8
20260903092608 68 249 1.0 2.0 0.00 0.00 0.00 97 1021.7
20260903092103 68 333 0.0 2.0 0.00 0.00 0.00 97 1021.9
20260903091601 68 62 1.0 2.0 0.00 0.00 0.00 96 1021.8
20260903091056 69 58 1.0 1.0 0.00 0.00 0.00 96 1021.7
20260903090552 68 42 0.0 0.0 0.00 0.00 0.00 97 1021.6
20260903090050 67 61 2.0 2.0 0.00 0.00 0.00 97 1021.6
20260903085544 68 52 1.0 1.0 0.00 0.00 0.00 97 1021.7
20260903085040 68 49 1.0 2.0 0.00 0.00 0.00 97 1021.6
20260903084538 68 175 0.0 2.0 0.00 0.00 0.00 96 1021.3
20260903084032 68 237 0.0 2.0 0.00 0.00 0.00 97 1021.7
20260903083528 68 331 2.0 2.0 0.00 0.00 0.00 96 1021.5
20260903083028 68 74 3.0 3.0 0.00 0.00 0.00 96 1021.4
20260903082522 69 283 2.0 3.0 0.00 0.00 0.00 94 1021.4
20260903082018 68 69 2.0 3.0 0.00 0.00 0.00 96 1021.4
20260903081514 69 47 1.0 4.0 0.00 0.00 0.00 95 1021.4
20260903081009 67 100 0.0 0.0 0.00 0.00 0.00 97 1021.4
20260903080505 67 332 0.0 0.0 0.00 0.00 0.00 97 1021.5
20260903080001 67 102 0.0 0.0 0.00 0.00 0.00 97 1021.5
20260903075455 68 275 0.0 0.0 0.00 0.00 0.00 97 1021.5
20260903074945 67 108 1.0 2.0 0.00 0.00 0.00 98 1021.7
20260903074444 68 294 0.0 1.0 0.00 0.00 0.00 97 1021.6
20260903073939 67 97 2.0 3.0 0.00 0.00 0.00 97 1021.6
20260903073434 67 56 2.0 3.0 0.00 0.00 0.00 97 1021.6
20260903072930 67 118 0.0 0.0 0.00 0.00 0.00 97 1021.5
20260903072426 68 263 0.0 0.0 0.00 0.00 0.00 96 1021.4
20260903071923 68 235 0.0 1.0 0.00 0.00 0.00 96 1021.5
20260903071418 68 78 2.0 2.0 0.00 0.00 0.00 96 1021.5
20260903070914 69 250 0.0 3.0 0.00 0.00 0.00 95 1021.8
20260903070408 68 35 3.0 3.0 0.00 0.00 0.00 96 1021.5
20260903065903 68 147 2.0 3.0 0.00 0.00 0.00 96 1021.7
20260903065402 68 206 2.0 3.0 0.00 0.00 0.00 97 1021.7
20260903064856 68 199 0.0 1.0 0.00 0.00 0.00 97 1021.7
20260903064352 68 190 2.0 4.0 0.00 0.00 0.00 97 1021.9
20260903063848 67 225 2.0 3.0 0.00 0.00 0.00 98 1022.1
20260903063342 67 258 1.0 3.0 0.00 0.00 0.00 99 1021.9
20260903062833 67 224 0.0 1.0 0.00 0.00 0.00 99 1022.1
20260903062332 67 131 0.0 0.0 0.00 0.00 0.00 99 1022.1
20260903061828 67 193 1.0 2.0 0.00 0.00 0.00 99 1022.2
20260903061327 67 144 0.0 1.0 0.00 0.00 0.00 99 1022.3
20260903060824 67 206 1.0 1.0 0.00 0.00 0.00 98 1022.5
20260903060322 68 201 0.0 1.0 0.00 0.00 0.00 97 1022.4
20260903055821 68 180 0.0 0.0 0.00 0.00 0.00 96 1022.6
20260903055314 69 250 0.0 0.0 0.00 0.00 0.00 96 1022.3
20260903054809 69 117 1.0 4.0 0.00 0.00 0.00 95 1022.5
20260903054308 68 96 3.0 3.0 0.00 0.00 0.00 97 1022.4
20260903053805 68 74 0.0 0.0 0.00 0.00 0.00 98 1022.5
20260903053301 68 104 0.0 0.0 0.00 0.00 0.00 98 1022.2
20260903052755 68 51 0.0 0.0 0.00 0.00 0.00 98 1022.3
20260903052251 68 52 0.0 0.0 0.00 0.00 0.00 98 1022.3
20260903051746 68 80 0.0 0.0 0.00 0.00 0.00 98 1022.3
20260903051242 68 121 0.0 0.0 0.00 0.00 0.00 98 1022.2
20260903050737 68 85 1.0 2.0 0.00 0.00 0.00 98 1022.3
20260903050237 68 91 0.0 0.0 0.00 0.00 0.00 98 1022.2
20260903045732 68 68 0.0 0.0 0.00 0.00 0.00 98 1022.4
20260903045228 68 64 0.0 1.0 0.00 0.00 0.00 97 1022.3
20260903044723 69 99 0.0 0.0 0.00 0.00 0.00 97 1022.2
20260903044218 69 115 0.0 0.0 0.00 0.00 0.00 96 1022.4
20260903043715 69 123 0.0 0.0 0.00 0.00 0.00 96 1022.5
20260903043214 70 146 0.0 0.0 0.00 0.00 0.00 96 1022.4
20260903042714 70 147 0.0 0.0 0.00 0.00 0.00 95 1022.6
20260903042208 70 277 1.0 2.0 0.00 0.00 0.00 95 1022.5
20260903041705 69 122 0.0 0.0 0.00 0.00 0.00 96 1022.6
20260903041201 69 206 0.0 0.0 0.00 0.00 0.00 97 1022.5
20260903040700 69 71 0.0 0.0 0.00 0.00 0.00 97 1022.6
20260903040155 70 80 0.0 0.0 0.00 0.00 0.00 96 1022.4
20260903035651 70 89 0.0 0.0 0.00 0.00 0.00 96 1022.4
20260903035148 69 83 0.0 0.0 0.00 0.00 0.00 97 1022.4
20260903034647 69 51 0.0 0.0 0.00 0.00 0.00 97 1022.4
20260903034142 70 74 0.0 0.0 0.00 0.00 0.00 97 1022.5
20260903033638 70 292 0.0 0.0 0.00 0.00 0.00 96 1022.7
20260903033138 70 41 0.0 0.0 0.00 0.00 0.00 96 1022.7
20260903032633 70 80 0.0 0.0 0.00 0.00 0.00 96 1022.4
20260903032128 70 245 0.0 0.0 0.00 0.00 0.00 95 1022.3
20260903031624 71 89 0.0 0.0 0.00 0.00 0.00 94 1022.2
20260903031118 71 221 0.0 0.0 0.00 0.00 0.00 94 1022.5
20260903030614 72 236 0.0 0.0 0.00 0.00 0.00 93 1022.4
20260903030104 72 151 0.0 0.0 0.00 0.00 0.00 93 1022.4
20260903025559 72 210 0.0 1.0 0.00 0.00 0.00 92 1022.6
20260903025055 72 212 0.0 1.0 0.00 0.00 0.00 93 1022.6
20260903024555 72 214 0.0 2.0 0.00 0.00 0.00 93 1022.7
20260903024049 73 211 0.0 2.0 0.00 0.00 0.00 91 1022.5
20260903023545 73 159 1.0 3.0 0.00 0.00 0.00 91 1022.7
20260903023040 73 135 0.0 0.0 0.00 0.00 0.00 92 1022.8
20260903022539 73 269 0.0 0.0 0.00 0.00 0.00 92 1022.7
20260903022038 72 129 0.0 0.0 0.00 0.00 0.00 93 1022.4
20260903021533 73 238 0.0 0.0 0.00 0.00 0.00 92 1022.4
20260903021028 73 80 0.0 0.0 0.00 0.00 0.00 92 1022.5
20260903020524 74 304 0.0 0.0 0.00 0.00 0.00 90 1022.4
20260903020023 74 93 0.0 0.0 0.00 0.00 0.00 90 1022.5
20260903015519 73 144 0.0 0.0 0.00 0.00 0.00 91 1022.5
20260903015014 72 113 0.0 0.0 0.00 0.00 0.00 93 1022.6
20260903014513 73 83 0.0 0.0 0.00 0.00 0.00 92 1022.6
20260903014008 73 250 0.0 0.0 0.00 0.00 0.00 92 1022.6
20260903013503 73 89 0.0 0.0 0.00 0.00 0.00 92 1022.5
20260903013003 73 164 0.0 0.0 0.00 0.00 0.00 92 1022.4
20260903012501 73 59 0.0 0.0 0.00 0.00 0.00 91 1022.6
20260903012000 73 111 0.0 0.0 0.00 0.00 0.00 91 1022.7
20260903011455 73 127 0.0 0.0 0.00 0.00 0.00 93 1022.5
20260903010950 73 43 0.0 0.0 0.00 0.00 0.00 92 1022.5
20260903010445 74 118 0.0 0.0 0.00 0.00 0.00 91 1022.5
20260903005942 74 87 0.0 0.0 0.00 0.00 0.00 90 1022.8
20260903005433 74 86 0.0 0.0 0.00 0.00 0.00 89 1022.3
20260903004929 75 138 0.0 0.0 0.00 0.00 0.00 89 1022.4
20260903004423 75 216 0.0 0.0 0.00 0.00 0.00 88 1022.1
20260903003914 75 100 0.0 0.0 0.00 0.00 0.00 88 1022.1
20260903003414 75 126 0.0 0.0 0.00 0.00 0.00 88 1022.2
20260903002914 75 200 0.0 0.0 0.00 0.00 0.00 88 1022.2
20260903002409 75 121 0.0 0.0 0.00 0.00 0.00 89 1022.3
20260903001908 75 114 0.0 0.0 0.00 0.00 0.00 88 1022.1
20260903001403 76 87 0.0 1.0 0.00 0.00 0.00 88 1021.8
20260903000903 76 338 0.0 0.0 0.00 0.00 0.00 87 1021.9
20260903000358 76 161 0.0 0.0 0.00 0.00 0.00 87 1021.9
20260902235856 77 114 0.0 2.0 0.00 0.00 0.00 85 1021.8
20260902235352 77 119 0.0 0.0 0.00 0.00 0.00 87 1021.8
20260902234851 77 277 1.0 2.0 0.00 0.00 0.00 85 1021.7
20260902234351 77 114 1.0 2.0 0.00 0.00 0.00 86 1021.7
20260902233850 78 222 0.0 0.0 0.00 0.00 0.00 85 1021.9
20260902233344 78 123 0.0 0.0 0.00 0.00 0.00 84 1021.7
20260902232843 79 212 1.0 2.0 0.00 0.00 0.00 84 1021.9
20260902232338 79 107 1.0 2.0 0.00 0.00 0.00 81 1021.8
20260902231833 79 75 1.0 1.0 0.00 0.00 0.00 83 1021.8
20260902231328 80 208 0.0 2.0 0.00 0.00 0.00 79 1021.8
20260902230823 82 95 0.0 0.0 0.00 0.00 0.00 78 1021.8
20260902230322 82 219 0.0 1.0 0.00 0.00 0.00 76 1021.8
20260902225822 84 183 0.0 1.0 0.00 0.00 0.00 74 1021.7
20260902225317 87 272 1.0 2.0 0.00 0.00 0.00 62 1021.7
20260902224815 87 151 2.0 2.0 0.00 0.00 0.00 61 1021.8
20260902224310 86 152 2.0 3.0 0.00 0.00 0.00 61 1021.8
20260902223808 88 129 1.0 2.0 0.00 0.00 0.00 62 1021.9
20260902223307 88 59 2.0 6.0 0.00 0.00 0.00 58 1021.6
20260902222801 88 119 2.0 3.0 0.00 0.00 0.00 58 1021.5
20260902222300 88 84 3.0 4.0 0.00 0.00 0.00 58 1021.6
20260902221754 91 132 1.0 2.0 0.00 0.00 0.00 61 1021.6
20260902221254 90 280 1.0 3.0 0.00 0.00 0.00 57 1021.6
20260902220750 91 218 1.0 3.0 0.00 0.00 0.00 58 1021.5
20260902220249 92 183 1.0 1.0 0.00 0.00 0.00 56 1021.5
20260902215745 91 249 1.0 3.0 0.00 0.00 0.00 55 1021.5
20260902215240 91 244 1.0 2.0 0.00 0.00 0.00 54 1021.5
20260902214736 90 287 0.0 3.0 0.00 0.00 0.00 57 1021.4
20260902214234 92 247 2.0 3.0 0.00 0.00 0.00 52 1021.5
20260902213725 92 217 0.0 2.0 0.00 0.00 0.00 58 1021.4
20260902213224 91 67 0.0 2.0 0.00 0.00 0.00 56 1021.4
20260902212724 91 198 2.0 4.0 0.00 0.00 0.00 54 1021.6
20260902212220 92 244 3.0 7.0 0.00 0.00 0.00 55 1021.5
20260902211716 92 229 2.0 3.0 0.00 0.00 0.00 54 1021.6
20260902211211 91 179 2.0 3.0 0.00 0.00 0.00 58 1021.6
20260902210706 91 244 2.0 3.0 0.00 0.00 0.00 54 1021.4
20260902210202 91 206 3.0 4.0 0.00 0.00 0.00 57 1021.5
20260902205659 91 162 7.0 9.0 0.00 0.00 0.00 56 1021.7
20260902205154 91 196 3.0 7.0 0.00 0.00 0.00 58 1021.7
20260902204649 91 201 4.0 8.0 0.00 0.00 0.00 53 1021.7
20260902204144 91 212 2.0 7.0 0.00 0.00 0.00 53 1021.5
20260902203640 92 194 3.0 4.0 0.00 0.00 0.00 54 1021.5
20260902203139 91 229 1.0 3.0 0.00 0.00 0.00 54 1021.7
20260902202635 92 221 4.0 6.0 0.00 0.00 0.00 52 1021.6
20260902202131 92 172 2.0 4.0 0.00 0.00 0.00 56 1021.6
20260902201627 92 144 1.0 3.0 0.00 0.00 0.00 55 1021.5
20260902201121 92 173 7.0 8.0 0.00 0.00 0.00 52 1021.6
20260902200616 90 206 2.0 3.0 0.00 0.00 0.00 57 1021.6
20260902200112 89 187 0.0 2.0 0.00 0.00 0.00 59 1021.5
20260902195607 89 181 0.0 3.0 0.00 0.00 0.00 58 1021.5
20260902195106 90 178 2.0 3.0 0.00 0.00 0.00 56 1021.6
20260902194606 90 181 2.0 2.0 0.00 0.00 0.00 59 1021.7
20260902194101 91 255 2.0 3.0 0.00 0.00 0.00 54 1021.8
20260902193557 92 298 0.0 1.0 0.00 0.00 0.00 52 1021.7
20260902193056 90 76 2.0 2.0 0.00 0.00 0.00 60 1021.7
20260902192555 87 115 3.0 4.0 0.00 0.00 0.00 63 1021.8
20260902192054 88 112 3.0 4.0 0.00 0.00 0.00 63 1022.1
20260902191549 89 118 0.0 1.0 0.00 0.00 0.00 66 1021.8
20260902191043 90 250 0.0 2.0 0.00 0.00 0.00 52 1022.2
20260902190539 91 135 2.0 6.0 0.00 0.00 0.00 55 1021.8
20260902190034 92 227 3.0 7.0 0.00 0.00 0.00 52 1022.1
20260902185530 92 221 0.0 2.0 0.00 0.00 0.00 51 1022.3
20260902185026 91 137 2.0 4.0 0.00 0.00 0.00 53 1022.1
20260902184521 93 245 3.0 6.0 0.00 0.00 0.00 50 1022.1
20260902184016 92 166 0.0 1.0 0.00 0.00 0.00 50 1022.4
20260902183512 91 79 1.0 2.0 0.00 0.00 0.00 51 1022.3
20260902183009 92 222 3.0 3.0 0.00 0.00 0.00 56 1022.6
20260902182504 91 79 2.0 2.0 0.00 0.00 0.00 57 1022.6
20260902182000 90 125 0.0 2.0 0.00 0.00 0.00 57 1022.6
20260902181455 91 53 0.0 1.0 0.00 0.00 0.00 54 1022.6
20260902180950 91 179 0.0 2.0 0.00 0.00 0.00 56 1022.7